Date,TemperatureHighF,TemperatureAvgF,TemperatureLowF,DewpointHighF,DewpointAvgF,DewpointLowF,HumidityHigh,HumidityAvg,HumidityLow,PressureMaxIn,PressureMinIn,WindSpeedMaxMPH,WindSpeedAvgMPH,GustSpeedMaxMPH,PrecipitationSumIn
2013-1-1,51.8,34.3,28.0,38.9,31.0,27.8,99,89,53,30.72,30.57,6,0,6,0.01
2013-1-2,54.0,37.0,29.7,43.9,28.2,20.4,99,75,31,30.57,30.41,11,2,11,0.01
2013-1-3,51.6,36.5,27.7,36.5,26.4,17.1,97,72,27,30.42,30.31,14,2,14,0.13
2013-1-4,56.3,44.1,37.0,48.4,42.1,36.3,99,93,70,30.53,30.38,14,3,14,0.06
2013-1-5,46.8,43.0,39.9,41.3,37.2,32.5,99,81,63,30.42,30.33,12,2,12,0.08
2013-1-6,45.3,42.7,39.7,42.4,40.5,38.3,99,92,84,30.41,30.21,12,4,12,0.07
2013-1-7,51.1,47.2,40.8,49.0,44.6,39.8,99,91,82,30.38,30.03,24,9,24,0.06
2013-1-8,54.5,47.9,42.1,50.7,45.6,40.5,99,92,78,30.38,29.95,31,8,31,0.44
2013-1-9,50.5,41.2,35.2,49.9,39.9,34.8,99,95,87,30.17,29.90,21,6,21,0.72
2013-1-10,38.5,36.0,30.6,37.6,34.6,29.6,99,95,89,30.33,30.16,30,2,30,0.06
2013-1-11,42.6,30.8,26.2,35.8,28.7,25.5,99,92,63,30.55,30.33,4,0,6,0.01
2013-1-12,45.5,30.1,24.8,38.6,26.5,22.5,99,88,55,30.66,30.53,9,1,9,0.00
2013-1-13,42.3,30.4,23.2,34.4,26.4,22.7,99,86,58,30.71,30.64,4,0,4,0.01
2013-1-14,38.1,34.2,31.6,31.5,28.8,26.5,91,81,66,30.78,30.68,7,1,7,0.00
2013-1-15,52.9,38.5,31.8,40.7,32.9,30.3,99,82,52,30.92,30.78,7,1,7,0.00
2013-1-16,50.9,33.5,28.4,44.2,31.8,27.7,99,94,64,30.89,30.73,4,1,4,0.00
2013-1-17,36.0,32.7,27.9,35.5,32.5,27.6,99,99,98,30.74,30.51,6,1,6,0.01
2013-1-18,37.2,33.1,30.2,37.0,32.9,30.0,99,99,99,30.57,30.48,6,1,6,0.00
2013-1-19,34.7,31.8,29.3,33.9,31.5,29.1,99,99,99,30.60,30.55,4,1,4,0.00
2013-1-20,43.2,33.0,29.3,41.1,32.6,28.9,99,99,91,30.61,30.48,4,1,4,0.00
2013-1-21,35.1,32.9,30.9,34.6,32.7,30.7,99,99,99,30.49,30.36,7,1,7,0.01
2013-1-22,40.5,34.0,30.2,39.8,33.7,29.8,99,99,98,30.36,30.12,5,0,5,0.00
2013-1-23,43.9,40.9,36.9,42.2,38.6,33.4,99,92,75,30.36,30.06,11,3,11,0.20
2013-1-24,48.4,42.7,37.0,43.1,39.4,34.1,99,89,62,30.43,30.27,11,2,11,0.14
2013-1-25,56.3,46.6,41.5,50.2,44.2,40.2,99,92,69,30.28,30.15,8,2,8,0.08
2013-1-26,48.0,42.9,40.1,41.5,39.8,38.6,99,89,72,30.26,30.10,18,4,18,0.09
2013-1-27,43.2,40.5,39.4,41.6,39.5,38.1,99,96,90,30.26,30.21,16,5,16,0.14
2013-1-28,42.4,41.0,38.7,42.2,40.5,38.4,99,98,94,30.31,30.22,9,3,9,1.18
2013-1-29,47.1,44.5,41.0,46.9,44.2,40.0,99,99,99,30.57,30.31,8,1,8,0.27
2013-1-30,46.8,40.8,35.2,46.5,40.6,35.0,99,99,99,30.60,30.53,1,0,1,0.43
2013-1-31,50.2,44.6,42.4,48.1,44.2,40.0,99,98,93,30.62,30.52,0,0,0,0.08
2013-2-1,70.3,46.9,40.8,64.3,46.2,40.6,99,97,80,30.63,30.55,0,0,0,0.00
2013-2-2,43.3,40.4,38.1,43.1,40.1,37.9,99,99,99,30.60,30.48,1,0,1,0.00
2013-2-3,50.0,44.0,37.4,48.2,43.6,36.8,99,98,93,30.53,30.43,1,0,1,0.00
2013-2-4,134.1,43.6,-39.1,99.9,41.3,-40.9,99,93,68,30.43,29.76,11,1,11,15.32
2013-2-5,139.6,52.7,-31.9,99.9,47.1,-39.6,99,89,72,29.97,29.86,19,6,19,0.20
2013-2-6,52.5,46.2,43.3,43.3,41.4,38.1,95,84,59,30.08,29.81,17,6,17,0.07
2013-2-7,55.8,44.5,35.8,42.4,37.0,32.3,96,77,45,30.21,29.81,21,4,21,0.07
2013-2-8,53.6,40.9,35.8,43.7,37.6,34.8,99,89,60,30.32,30.21,5,1,5,0.00
2013-2-9,47.1,42.2,39.4,42.0,40.0,37.9,99,92,77,30.35,30.28,4,0,4,0.00
2013-2-10,54.7,42.5,36.3,45.6,39.0,35.9,99,88,57,30.40,30.34,6,1,6,0.01
2013-2-11,49.1,43.7,38.8,42.9,40.3,38.5,99,88,69,30.38,30.34,8,1,8,0.01
2013-2-12,51.3,47.4,44.4,47.8,45.8,42.5,99,94,83,30.42,30.30,23,6,23,0.04
2013-2-13,49.3,46.6,44.6,47.0,43.1,41.0,99,88,77,30.52,30.30,17,4,17,0.01
2013-2-14,51.1,46.1,42.8,46.5,44.1,41.5,99,93,78,30.58,30.51,9,2,9,0.06
2013-2-15,62.8,46.1,38.8,49.2,42.9,38.4,99,90,57,30.57,30.20,6,1,6,0.00
2013-2-16,56.7,46.1,41.0,45.0,42.2,38.3,99,87,55,30.23,30.14,17,6,17,0.05
2013-2-17,48.6,43.0,40.8,40.6,37.5,32.7,93,81,56,30.27,30.13,12,3,12,0.01
2013-2-18,48.0,41.9,37.6,40.2,37.9,35.9,99,86,64,30.14,29.78,11,2,11,0.01
2013-2-19,57.7,43.9,36.9,39.6,36.9,33.3,98,79,45,30.03,29.75,11,2,11,0.01
2013-2-20,45.9,40.5,35.1,41.0,37.4,33.4,99,89,73,30.06,30.00,12,2,12,0.13
2013-2-21,44.8,42.3,39.0,42.8,40.0,38.4,99,91,82,30.10,30.02,21,7,21,0.02
2013-2-22,48.0,42.7,39.6,44.7,40.2,35.2,99,91,81,30.08,29.72,30,10,30,0.30
2013-2-23,54.0,42.7,39.2,40.8,38.2,35.4,98,85,52,30.40,29.92,17,4,17,0.25
2013-2-24,49.5,44.8,40.8,39.1,37.0,34.5,88,75,61,30.40,29.97,23,6,23,0.01
2013-2-25,56.5,44.7,39.9,40.9,36.7,23.5,95,76,30,30.33,29.91,26,9,26,0.11
2013-2-26,50.7,44.2,39.6,37.6,34.5,30.1,88,70,48,30.37,30.22,14,5,14,0.01
2013-2-27,51.8,44.8,38.8,44.3,41.7,37.9,99,89,65,30.33,30.22,17,2,17,0.30
2013-2-28,53.6,47.4,42.4,52.6,47.2,42.2,99,99,97,30.35,30.21,17,4,17,0.17
2013-3-1,59.9,54.6,52.0,52.8,51.4,49.8,99,89,74,30.38,30.31,21,7,21,0.06
2013-3-2,58.5,50.1,37.8,51.0,46.0,37.3,99,86,68,30.31,30.09,19,5,19,0.37
2013-3-3,58.8,42.7,32.7,40.0,35.8,30.8,99,79,41,30.33,30.23,11,3,11,0.00
2013-3-4,59.4,43.4,30.0,39.2,28.3,18.8,99,63,22,30.33,29.94,13,2,13,0.01
2013-3-5,52.2,44.8,39.4,41.6,35.7,24.6,95,71,46,29.94,29.75,10,2,10,0.00
2013-3-6,45.0,42.2,38.8,44.1,41.2,38.2,99,96,87,29.92,29.60,14,3,14,0.57
2013-3-7,57.0,45.6,38.7,47.1,41.9,38.4,99,88,53,30.11,29.92,9,2,9,0.18
2013-3-8,59.0,43.5,34.9,44.8,39.1,34.6,99,86,54,30.26,30.10,10,2,10,0.00
2013-3-9,61.5,45.2,33.3,44.4,37.5,31.8,99,78,38,30.52,30.26,13,2,13,0.00
2013-3-10,48.7,44.0,39.4,44.2,40.1,35.7,97,86,74,30.51,30.45,8,2,8,0.02
2013-3-11,54.0,46.9,40.3,48.0,44.0,40.0,99,91,69,30.47,30.19,10,1,10,0.05
2013-3-12,56.3,52.9,48.6,53.1,49.8,46.7,99,89,71,30.19,30.09,24,10,24,0.00
2013-3-13,53.6,51.9,50.5,53.2,51.0,49.6,99,97,90,30.23,30.12,21,5,21,0.21
2013-3-14,54.3,50.8,48.0,52.1,49.1,45.2,99,94,76,30.18,30.05,14,4,14,0.01
2013-3-15,62.6,53.3,48.4,53.3,49.8,47.2,99,89,63,30.24,30.17,15,6,15,0.00
2013-3-16,54.1,47.5,40.8,48.1,43.3,35.8,96,86,65,30.17,29.91,22,7,22,0.00
2013-3-17,52.2,43.6,39.2,37.7,35.8,31.9,90,75,50,30.22,30.00,18,7,18,0.00
2013-3-18,58.5,47.3,38.1,46.5,37.2,28.3,95,70,35,30.04,29.90,22,5,22,0.00
2013-3-19,59.2,43.8,34.7,43.3,36.5,23.6,99,80,26,30.03,29.39,19,2,19,0.00
2013-3-20,54.7,47.4,39.7,50.8,42.9,33.7,99,85,67,29.82,29.19,34,10,34,0.00
2013-3-21,51.8,41.1,35.6,41.0,36.2,32.2,99,83,54,30.02,29.82,14,6,14,0.00
2013-3-22,54.0,40.3,32.7,41.1,33.2,25.6,99,79,37,30.17,30.01,12,3,12,0.00
2013-3-23,57.0,41.5,31.8,37.3,29.6,17.6,98,68,23,30.19,30.09,8,1,8,0.00
2013-3-24,60.4,43.0,30.4,35.8,31.1,24.3,99,67,27,30.10,29.92,5,1,5,0.00
2013-3-25,68.4,51.3,35.2,34.6,28.3,18.9,81,46,16,29.93,29.73,9,2,9,0.00
2013-3-26,68.0,52.8,45.1,42.2,38.1,29.7,79,60,26,29.82,29.76,8,2,8,0.00
2013-3-27,61.7,50.6,45.3,49.9,43.6,37.8,99,78,52,29.79,29.73,5,1,5,0.00
2013-3-28,68.7,53.2,44.2,52.9,47.1,43.2,99,82,48,29.95,29.79,9,2,9,0.00
2013-3-29,70.9,55.0,43.9,50.6,46.0,39.7,99,76,34,30.05,29.95,8,2,8,0.01
2013-3-30,72.3,55.2,41.4,48.1,45.4,41.1,99,74,38,30.06,29.88,12,3,12,0.00
2013-3-31,76.5,57.8,42.8,47.8,44.4,40.5,99,66,30,29.88,29.72,8,2,8,0.00
2013-4-1,66.2,54.3,46.8,51.1,48.3,43.3,99,82,51,29.96,29.77,13,4,13,0.00
2013-4-2,57.6,53.0,48.9,49.9,48.2,46.7,96,84,69,30.00,29.95,14,3,14,0.00
2013-4-3,68.2,55.7,45.1,50.2,46.1,41.4,99,73,43,29.99,29.75,8,1,8,0.00
2013-4-4,57.4,53.3,49.8,55.7,51.5,47.1,99,94,82,29.75,29.45,18,3,18,0.00
2013-4-5,58.5,53.2,48.7,52.7,50.8,48.3,99,92,75,29.68,29.53,22,7,22,0.00
2013-4-6,53.6,48.5,44.4,49.7,46.3,43.4,99,92,76,29.75,29.51,26,6,26,0.00
2013-4-7,48.7,43.6,40.3,47.6,43.0,40.0,99,98,92,29.69,29.30,13,3,13,0.00
2013-4-8,59.9,48.2,42.4,48.0,44.3,41.2,99,87,60,30.07,29.69,11,3,11,0.00
2013-4-9,57.2,50.2,43.5,46.4,43.4,39.6,98,79,55,30.15,29.86,10,3,10,0.00
2013-4-10,63.5,53.7,48.4,52.5,46.4,42.3,99,77,53,29.93,29.62,23,7,23,0.00
2013-4-11,56.7,48.6,43.7,47.7,42.5,37.9,98,80,57,29.98,29.86,14,3,14,0.00
2013-4-12,47.8,44.0,40.5,45.2,40.9,37.1,99,89,70,29.86,29.35,27,5,27,0.00
2013-4-13,50.7,43.0,38.8,44.5,39.4,34.5,99,87,73,29.68,29.44,21,6,21,0.00
2013-4-14,59.9,46.7,39.0,43.3,38.8,25.6,99,78,30,29.69,29.59,11,3,11,0.00
2013-4-15,61.2,46.8,37.8,44.1,40.1,34.1,99,81,41,29.85,29.62,17,2,17,0.00
2013-4-16,63.0,46.4,36.1,47.7,39.6,33.2,99,80,35,30.07,29.85,9,1,9,0.00
2013-4-17,64.4,51.1,36.5,43.6,37.5,24.0,98,65,22,30.13,30.06,11,3,11,0.00
2013-4-18,53.6,48.2,43.9,49.9,44.5,39.2,99,87,69,30.13,29.88,16,5,16,0.00
2013-4-19,56.5,51.3,47.8,55.2,50.9,47.6,99,99,95,29.88,29.73,19,5,19,0.00
2013-4-20,56.7,50.5,47.1,50.8,47.2,44.2,99,89,72,29.95,29.87,14,6,14,0.00
2013-4-21,60.3,48.5,43.5,48.3,43.1,39.3,94,82,51,30.04,29.90,14,4,14,0.00
2013-4-22,65.8,50.2,37.2,46.9,35.4,21.0,99,64,22,30.19,30.04,13,2,13,0.00
2013-4-23,69.3,51.7,36.1,42.7,33.2,9.2,97,58,10,30.10,29.91,11,2,11,0.00
2013-4-24,76.8,57.2,39.9,46.0,35.1,13.8,98,53,10,30.00,29.74,9,2,9,0.00
2013-4-25,78.8,60.2,42.4,46.7,36.6,21.0,87,49,12,29.83,29.71,8,1,8,0.00
2013-4-26,69.8,58.1,46.9,50.7,47.5,41.5,99,71,37,29.93,29.82,12,3,12,0.00
2013-4-27,58.1,54.8,52.0,50.2,44.5,36.5,92,70,48,29.90,29.83,21,7,21,0.00
2013-4-28,62.6,53.7,48.7,54.2,45.7,39.9,95,76,46,29.90,29.63,17,5,17,0.00
2013-4-29,61.2,48.4,40.8,49.7,42.9,34.2,99,84,42,29.84,29.58,14,3,14,0.00
2013-4-30,62.1,47.7,37.2,42.9,36.4,27.2,99,70,28,30.11,29.84,11,2,11,0.00
2013-5-1,69.3,51.7,34.0,40.4,33.1,14.1,99,58,14,30.25,30.11,10,2,10,0.00
2013-5-2,75.6,57.2,42.4,43.5,40.1,35.3,93,57,25,30.22,30.05,14,3,14,0.00
2013-5-3,75.6,59.8,45.3,50.2,45.0,40.9,91,61,38,30.07,29.91,13,3,13,0.00
2013-5-4,82.2,64.7,48.4,50.5,44.1,28.0,92,53,17,29.91,29.67,14,3,14,0.00
2013-5-5,88.5,69.1,51.8,48.3,42.2,27.9,83,45,13,29.68,29.45,11,2,11,0.00
2013-5-6,92.7,71.4,52.7,52.8,42.1,25.5,86,43,10,29.53,29.43,8,2,8,0.00
2013-5-7,74.8,61.9,52.3,55.0,52.2,49.6,96,72,45,29.69,29.50,14,4,14,0.00
2013-5-8,70.2,57.9,52.0,54.9,52.0,50.2,99,82,55,29.83,29.69,11,3,11,0.00
2013-5-9,75.2,59.7,50.2,57.1,52.7,47.6,99,80,43,29.90,29.80,8,1,8,0.00
2013-5-10,86.2,66.6,50.0,59.2,52.5,44.9,99,66,27,29.88,29.79,8,1,8,0.00
2013-5-11,84.6,69.4,56.7,59.0,49.5,38.8,80,52,25,29.86,29.67,13,3,13,0.00
2013-5-12,74.5,64.7,57.7,60.6,58.1,53.9,99,81,52,29.78,29.69,13,4,13,0.00
2013-5-13,68.2,57.5,49.8,59.5,52.7,41.8,99,85,61,29.87,29.61,24,6,24,0.00
2013-5-14,71.1,57.0,46.8,45.6,40.7,30.0,90,59,23,29.91,29.79,11,3,11,0.00
2013-5-15,70.2,55.7,45.9,53.0,47.0,40.9,99,75,39,29.81,29.70,9,2,10,0.00
2013-5-16,76.5,62.3,52.9,55.9,52.0,44.9,99,73,35,29.70,29.55,11,2,11,0.00
2013-5-17,64.8,57.9,53.2,54.3,51.0,45.4,99,79,52,29.75,29.63,14,4,14,0.00
2013-5-18,64.4,57.6,52.5,50.4,47.8,43.8,91,71,49,29.95,29.74,14,3,14,0.00
2013-5-19,68.7,58.5,52.7,52.9,50.1,47.4,91,75,51,30.08,29.95,9,2,9,0.00
2013-5-20,73.4,58.1,47.7,52.0,48.8,41.8,99,75,37,30.03,29.58,10,2,10,0.00
2013-5-21,63.0,52.1,46.4,52.2,47.1,41.3,99,84,48,30.24,29.45,15,4,15,0.00
2013-5-22,55.8,48.4,43.3,48.5,46.0,43.1,99,92,74,29.61,29.52,13,4,13,0.00
2013-5-23,61.3,50.6,45.1,49.4,46.5,41.4,99,87,50,29.69,29.60,14,2,14,0.00
2013-5-24,69.3,55.1,46.8,51.3,47.3,40.5,99,78,36,29.73,29.64,12,3,12,0.00
2013-5-25,70.2,57.3,50.5,50.3,47.3,40.1,96,72,36,29.72,29.65,11,3,11,0.00
2013-5-26,70.2,57.8,51.3,56.7,52.2,48.5,99,83,54,29.67,29.62,10,2,10,0.00
2013-5-27,63.0,56.6,50.4,58.7,54.7,50.0,99,93,80,29.65,29.39,10,2,10,0.00
2013-5-28,66.0,57.1,51.8,54.4,51.7,48.1,99,83,55,29.57,29.45,13,4,13,0.00
2013-5-29,64.6,55.6,49.6,54.0,50.6,47.2,99,84,59,29.65,29.37,19,3,19,0.00
2013-5-30,66.6,56.5,49.3,50.2,47.3,41.5,92,73,40,29.93,29.65,17,7,17,0.00
2013-5-31,72.9,59.6,50.9,50.8,45.9,37.2,93,65,30,30.02,29.93,9,2,9,0.00
2013-6-1,78.8,63.1,52.0,52.2,47.4,37.9,85,60,25,29.93,29.74,11,2,11,0.00
2013-6-2,77.2,63.2,53.2,55.9,50.4,45.6,96,66,34,29.77,29.73,11,2,11,0.00
2013-6-3,78.3,62.7,52.2,54.7,51.9,46.6,98,71,35,29.81,29.74,17,3,17,0.00
2013-6-4,84.7,67.9,52.0,55.9,52.2,43.7,98,62,26,29.81,29.70,11,2,11,0.00
2013-6-5,85.5,68.5,54.3,58.3,53.0,46.7,85,60,32,29.77,29.71,12,2,12,0.00
2013-6-6,86.5,68.6,53.6,57.1,49.7,37.6,93,56,20,29.74,29.68,10,2,10,0.00
2013-6-7,72.0,63.2,57.2,56.7,49.9,39.5,79,63,38,29.83,29.70,18,3,18,0.00
2013-6-8,72.7,61.5,54.0,51.7,49.6,47.8,82,66,44,29.87,29.78,9,3,9,0.00
2013-6-9,75.7,60.3,52.5,51.6,48.5,44.4,89,67,37,29.80,29.70,11,4,11,0.00
2013-6-10,76.8,61.6,48.6,49.9,46.7,39.7,89,61,27,29.73,29.56,9,3,9,0.00
2013-6-11,69.8,59.7,51.1,48.8,46.2,41.5,85,63,38,29.79,29.62,18,7,18,0.00
2013-6-12,72.3,60.4,53.2,53.1,47.0,37.8,94,64,30,29.83,29.78,15,6,15,0.00
2013-6-13,78.1,61.6,51.6,52.8,49.8,42.3,98,68,29,29.90,29.82,10,2,10,0.00
2013-6-14,73.8,60.7,54.9,51.6,48.9,46.3,81,66,39,29.92,29.74,15,4,15,0.00
2013-6-15,81.5,65.7,50.4,55.0,52.0,47.8,99,65,34,29.74,29.60,9,2,9,0.00
2013-6-16,78.3,66.3,56.1,57.1,53.2,46.7,90,64,42,29.77,29.67,13,4,13,0.00
2013-6-17,80.1,66.8,57.0,56.8,51.7,41.7,96,62,26,29.77,29.57,13,4,13,0.00
2013-6-18,78.3,65.3,54.7,56.7,49.4,35.3,98,63,23,29.67,29.55,14,4,14,0.00
2013-6-19,72.0,60.9,55.0,56.1,52.1,47.8,90,74,44,29.69,29.59,11,4,11,0.00
2013-6-20,61.5,57.5,53.4,56.7,53.1,49.8,99,85,70,29.79,29.63,16,5,16,0.00
2013-6-21,74.3,61.3,53.1,57.1,53.5,49.2,99,78,44,29.84,29.79,7,2,8,0.00
2013-6-22,82.8,67.7,52.5,59.5,53.2,44.8,99,65,29,29.81,29.53,8,1,8,0.00
2013-6-23,74.3,66.3,60.3,64.9,60.5,56.0,99,82,65,29.53,29.27,8,1,8,0.00
2013-6-24,72.0,63.4,56.8,61.8,56.8,51.4,99,81,49,29.39,29.26,15,4,15,0.00
2013-6-25,79.3,63.7,56.7,61.6,57.0,48.1,99,82,36,29.55,29.36,17,3,17,0.00
2013-6-26,76.8,64.8,56.5,64.1,58.9,56.2,99,83,55,29.76,29.53,12,2,12,0.00
2013-6-27,73.8,65.6,60.4,66.5,63.0,57.6,99,92,73,29.88,29.72,5,1,5,0.00
2013-6-28,92.7,75.5,61.7,67.2,62.6,51.9,99,70,28,29.87,29.73,11,2,11,0.00
2013-6-29,90.7,75.9,65.7,64.9,61.5,56.2,94,65,32,29.79,29.67,8,2,8,0.00
2013-6-30,97.9,79.4,61.9,67.4,62.7,56.4,95,62,28,29.70,29.54,9,2,9,0.00
2013-7-1,95.5,79.3,66.4,66.4,62.2,58.0,85,59,32,29.71,29.60,11,2,11,0.00
2013-7-2,87.3,73.6,62.2,62.4,56.8,46.7,93,59,27,29.79,29.71,12,2,12,0.00
2013-7-3,84.6,70.4,60.4,54.7,50.3,43.1,68,50,33,29.83,29.72,11,3,11,0.00
2013-7-4,77.2,65.0,57.9,56.0,53.4,49.7,84,67,43,29.81,29.70,12,3,12,0.00
2013-7-5,81.0,66.8,56.8,57.0,55.0,51.4,93,68,38,29.72,29.62,9,3,9,0.00
2013-7-6,84.7,66.4,56.1,59.5,56.7,51.3,99,75,32,29.67,29.57,8,2,8,0.00
2013-7-7,84.7,70.3,60.6,59.9,52.2,45.4,83,55,33,30.14,29.92,8,3,8,0.00
2013-7-8,83.8,67.9,56.8,59.3,56.5,53.6,93,70,38,30.09,29.94,11,3,11,0.00
2013-7-9,90.1,73.4,59.2,60.8,56.5,51.4,99,60,29,30.10,29.99,10,2,10,0.00
2013-7-10,76.1,65.1,58.8,58.3,55.2,51.1,92,71,48,30.07,29.94,11,3,11,0.00
2013-7-11,74.1,59.9,55.6,52.2,49.9,47.6,81,70,42,30.07,29.98,8,3,8,0.00
2013-7-12,70.0,61.0,54.0,53.0,51.6,47.6,87,72,54,30.10,30.00,7,1,7,0.00
2013-7-13,82.8,66.3,52.3,54.8,50.2,42.3,97,61,25,30.19,30.10,12,2,12,0.00
2013-7-14,87.4,69.8,53.4,55.7,46.7,23.9,94,51,10,30.13,29.97,9,2,9,0.00
2013-7-15,86.9,70.1,54.3,58.5,51.4,46.5,87,55,28,30.04,29.88,14,3,14,0.00
2013-7-16,92.3,74.7,59.7,57.9,52.5,44.0,80,49,21,29.90,29.79,12,2,12,0.00
2013-7-17,72.9,66.9,59.5,60.9,57.4,53.8,89,72,55,30.18,29.88,14,4,14,0.00
2013-7-18,83.3,68.1,57.7,60.0,57.6,55.0,93,71,40,30.22,30.11,8,2,8,0.00
2013-7-19,84.4,68.5,55.8,61.8,58.8,54.8,98,74,43,30.16,30.02,10,2,10,0.00
2013-7-20,80.2,66.3,56.8,61.5,58.8,55.6,99,79,51,30.09,29.95,8,2,8,0.00
2013-7-21,80.1,66.0,56.8,61.1,58.6,56.4,99,79,50,29.98,29.90,10,3,10,0.00
2013-7-22,83.5,67.3,57.2,61.3,58.7,56.7,99,77,44,30.06,29.93,8,2,8,0.00
2013-7-23,90.5,73.1,59.4,60.9,56.2,47.4,95,61,25,30.06,29.96,10,2,10,0.00
2013-7-24,90.9,73.4,58.3,62.7,53.6,43.7,95,56,22,30.05,29.98,9,2,9,0.00
2013-7-25,89.6,72.7,57.2,59.5,51.6,36.9,93,53,19,30.09,30.02,10,2,10,0.00
2013-7-26,90.7,72.3,56.7,56.7,49.7,31.2,92,51,16,30.14,30.06,11,3,11,0.00
2013-7-27,83.1,68.0,55.8,56.7,51.4,42.2,89,59,25,30.16,29.99,10,2,10,0.00
2013-7-28,71.4,62.5,54.3,56.4,54.5,52.6,96,76,57,30.02,29.95,15,5,15,0.00
2013-7-29,79.7,65.7,56.5,58.5,55.0,53.0,89,70,41,30.00,29.94,8,2,8,0.00
2013-7-30,82.4,67.8,56.8,60.0,56.7,54.3,93,70,41,30.13,29.99,11,3,11,0.00
2013-7-31,73.8,64.3,57.7,63.0,59.5,56.6,99,85,63,30.12,29.99,8,2,8,0.00
2013-8-1,69.4,62.5,56.7,59.9,56.7,55.4,97,82,63,30.07,30.03,11,5,11,0.00
2013-8-2,63.1,61.3,59.2,61.3,58.4,55.6,98,90,83,30.12,30.06,14,3,14,0.00
2013-8-3,79.0,66.2,59.7,64.5,60.6,58.2,99,84,54,30.12,30.04,6,1,6,0.00
2013-8-4,86.9,70.9,58.1,63.8,60.0,56.8,99,72,42,30.06,29.93,10,2,10,0.00
2013-8-5,90.7,73.8,59.4,64.3,58.7,51.1,99,64,30,30.00,29.92,9,2,9,0.00
2013-8-6,90.9,73.2,58.3,61.4,54.8,39.9,92,58,20,30.00,29.90,8,2,8,0.00
2013-8-7,90.5,72.9,59.2,60.6,56.0,48.4,94,60,25,30.00,29.93,9,2,9,0.00
2013-8-8,87.6,70.3,59.0,60.8,58.5,56.0,96,69,38,30.03,29.93,9,3,9,0.00
2013-8-9,85.5,72.0,59.0,62.3,57.5,54.1,92,63,36,29.95,29.83,14,2,14,0.00
2013-8-10,83.1,69.5,59.9,64.7,62.5,58.5,99,80,50,30.00,29.88,14,3,14,0.00
2013-8-11,78.8,67.7,59.0,60.9,56.8,53.4,89,70,44,30.05,29.96,13,4,13,0.00
2013-8-12,83.5,69.6,60.6,58.5,55.8,52.7,89,64,36,30.06,29.98,10,2,10,0.00
2013-8-13,86.4,70.3,58.5,58.6,55.1,44.6,92,63,25,30.08,29.91,11,2,11,0.00
2013-8-14,84.7,67.7,59.4,64.6,58.6,46.1,97,76,33,30.13,29.91,10,1,11,20.36
2013-8-15,71.2,67.4,63.7,68.7,65.6,63.1,99,94,86,30.00,29.93,6,1,6,0.00
2013-8-16,86.2,73.2,63.1,69.3,61.6,39.3,99,74,21,30.01,29.95,12,2,12,0.00
2013-8-17,81.7,72.9,63.5,61.3,58.8,55.5,86,62,45,30.08,30.02,13,4,13,0.00
2013-8-18,81.7,69.6,61.0,59.8,57.4,52.6,88,67,43,30.14,30.07,14,4,14,0.00
2013-8-19,85.1,69.2,61.0,59.8,55.7,51.7,83,64,36,30.12,30.06,14,3,14,0.00
2013-8-20,81.0,67.5,58.8,57.1,52.9,50.1,79,61,38,30.17,30.07,14,4,14,0.00
2013-8-21,86.9,69.4,54.1,56.8,53.2,49.3,93,60,28,30.10,29.94,12,2,12,0.00
2013-8-22,90.3,73.3,58.1,59.9,54.1,47.8,91,55,25,29.95,29.81,9,1,9,0.00
2013-8-23,77.5,68.1,62.1,59.0,57.1,53.7,88,69,48,29.90,29.83,14,5,14,0.00
2013-8-24,83.3,68.0,60.8,60.4,56.3,48.1,95,69,31,29.93,29.85,11,3,11,0.00
2013-8-25,78.8,65.4,55.9,59.5,55.7,53.0,94,73,44,29.95,29.88,8,2,8,0.00
2013-8-26,80.4,66.9,60.8,62.1,58.8,49.1,93,77,40,29.96,29.86,13,2,13,0.00
2013-8-27,85.3,70.5,61.0,62.4,59.8,57.1,95,72,41,29.97,29.79,9,2,9,0.00
2013-8-28,83.7,70.7,61.0,69.9,63.0,59.4,99,79,49,29.91,29.83,6,1,6,0.00
2013-8-29,79.3,68.1,64.4,69.7,66.1,46.1,99,94,39,29.98,29.86,10,2,10,20.36
2013-8-30,83.5,70.0,60.8,65.4,57.9,47.0,98,70,29,30.09,29.95,11,3,11,0.00
2013-8-31,86.0,69.0,55.8,62.1,58.0,53.8,99,72,36,30.02,29.77,11,1,11,0.00
2013-9-1,86.4,71.5,61.0,60.9,58.7,54.0,96,68,37,29.83,29.73,10,3,10,0.00
2013-9-2,87.3,73.2,61.3,59.5,56.8,52.0,88,60,33,29.88,29.80,8,2,8,0.00
2013-9-3,78.1,66.5,62.1,67.5,63.1,59.3,99,89,65,29.96,29.87,5,1,5,0.00
2013-9-4,72.7,65.0,60.4,64.4,62.1,60.2,99,91,75,29.99,29.92,10,1,10,0.00
2013-9-5,75.6,64.2,60.6,65.4,62.0,60.4,99,93,70,29.98,29.86,13,2,13,0.00
2013-9-6,76.5,64.8,60.6,66.1,62.3,60.2,99,92,66,30.05,29.88,11,3,11,0.00
2013-9-7,80.1,66.4,61.2,64.8,61.8,59.5,99,87,53,30.05,29.95,8,1,8,0.00
2013-9-8,84.7,68.3,59.0,65.8,61.3,58.6,99,81,44,30.05,29.96,8,1,8,0.00
2013-9-9,83.8,67.5,59.9,65.1,61.9,59.6,99,84,48,30.01,29.91,8,1,8,0.00
2013-9-10,85.1,68.3,57.7,65.2,62.0,57.5,99,83,50,29.93,29.82,11,2,11,0.00
2013-9-11,98.2,75.6,59.2,66.9,61.1,51.6,99,68,22,29.87,29.81,6,1,6,0.00
2013-9-12,85.6,69.6,61.0,64.7,62.7,59.2,99,81,42,29.94,29.84,8,2,8,0.00
2013-9-13,68.2,64.0,60.1,64.0,62.0,59.8,99,94,83,29.91,29.81,8,2,8,0.00
2013-9-14,70.9,65.1,61.3,64.1,62.6,61.1,99,92,76,29.81,29.67,6,1,6,0.00
2013-9-15,68.0,62.7,59.5,65.3,62.0,59.3,99,97,86,29.75,29.65,11,2,11,0.00
2013-9-16,71.6,63.2,59.0,62.3,59.7,54.8,99,89,70,29.87,29.74,16,4,16,0.00
2013-9-17,64.2,60.1,57.4,55.5,54.1,52.5,91,81,66,29.87,29.80,6,1,7,0.00
2013-9-18,76.6,62.6,53.8,56.9,53.3,47.7,98,75,38,30.00,29.87,11,3,11,0.00
2013-9-19,84.9,64.6,48.2,57.6,50.4,43.4,99,67,27,29.98,29.69,7,1,7,0.00
2013-9-20,79.0,65.6,58.3,58.9,52.7,48.5,99,66,36,29.69,29.53,15,4,15,0.00
2013-9-21,76.6,63.5,56.3,59.8,56.4,51.8,99,80,45,29.65,29.58,11,3,11,0.00
2013-9-22,64.4,58.7,55.2,59.3,55.1,49.9,99,88,63,29.67,29.51,19,7,19,0.00
2013-9-23,62.6,57.2,52.9,56.7,54.3,52.1,99,90,75,29.90,29.67,19,6,19,0.00
2013-9-24,68.4,56.5,51.3,53.3,50.0,44.7,99,81,45,29.89,29.77,12,4,12,0.00
2013-9-25,65.3,53.0,50.2,53.4,50.2,47.3,99,91,56,29.96,29.78,8,2,8,0.00
2013-9-26,69.1,53.9,44.4,54.8,48.6,44.0,99,84,51,30.06,29.95,10,1,10,0.00
2013-9-27,58.5,55.2,51.4,55.5,51.6,48.0,96,88,78,30.05,29.78,16,5,16,0.00
2013-9-28,61.3,56.4,52.7,60.5,55.7,51.0,99,98,91,29.78,29.28,21,7,21,0.00
2013-9-29,57.0,54.0,52.2,54.2,51.4,49.2,99,91,78,29.49,29.10,24,8,24,0.00
2013-9-30,59.0,52.1,48.2,55.1,50.2,46.9,99,93,80,29.86,29.37,24,8,24,0.00
2013-10-1,62.6,52.2,47.8,52.9,48.3,44.2,99,88,55,30.03,29.84,17,6,17,0.00
2013-10-2,58.5,51.8,48.2,51.9,49.2,47.4,99,91,72,30.10,29.98,14,3,14,0.00
2013-10-3,63.7,51.9,44.8,53.4,48.5,44.5,99,89,58,30.38,30.10,6,1,6,0.00
2013-10-4,68.7,52.6,43.3,53.2,47.4,42.9,99,85,49,30.40,30.27,5,0,5,0.00
2013-10-5,77.7,56.8,43.9,56.3,49.0,43.6,99,79,36,30.28,30.06,7,1,7,0.00
2013-10-6,81.1,59.9,45.3,57.7,47.9,37.3,99,72,24,30.06,29.81,11,2,11,0.00
2013-10-7,63.5,56.0,53.1,54.1,50.7,45.2,99,84,53,29.94,29.83,18,8,18,0.00
2013-10-8,63.0,52.1,44.8,53.7,47.7,43.5,99,86,59,30.00,29.88,14,3,14,0.00
2013-10-9,66.0,50.5,42.3,54.2,45.4,42.0,99,85,49,30.06,29.88,6,1,6,0.00
2013-10-10,67.1,53.6,45.9,52.4,47.9,44.4,99,82,49,30.00,29.86,8,2,8,0.00
2013-10-11,57.7,52.5,50.2,54.8,51.4,49.9,99,96,84,30.06,29.99,3,0,4,0.00
2013-10-12,64.8,52.1,46.2,53.9,49.8,46.0,99,93,63,30.14,29.99,11,1,11,0.00
2013-10-13,63.5,49.3,43.0,52.8,47.0,42.7,99,93,64,30.29,30.14,6,0,6,0.00
2013-10-14,66.9,50.1,41.2,54.2,45.9,40.9,99,87,55,30.35,30.28,7,1,7,0.00
2013-10-15,64.8,50.6,43.3,53.8,48.3,43.1,99,93,65,30.31,30.10,5,0,5,0.00
2013-10-16,54.7,49.8,45.7,51.8,48.7,45.2,99,96,86,30.13,30.07,11,1,11,0.00
2013-10-17,63.3,50.8,44.4,53.0,48.9,44.2,99,94,67,30.20,30.13,6,1,6,0.00
2013-10-18,66.0,49.2,43.2,54.7,47.2,42.9,99,94,65,30.17,30.07,6,1,6,0.00
2013-10-19,50.9,47.8,45.0,50.6,47.5,44.5,99,99,98,30.12,30.06,4,1,4,0.00
2013-10-20,51.1,47.6,45.5,49.7,47.2,45.2,99,98,94,30.13,30.07,7,1,7,0.00
2013-10-21,54.3,48.4,45.3,51.6,47.7,45.1,99,98,89,30.09,30.02,6,2,6,0.00
2013-10-22,64.6,49.9,45.9,55.6,48.6,45.6,99,96,70,30.04,29.96,6,1,6,0.00
2013-10-23,67.8,49.5,44.4,59.5,48.3,44.2,99,96,68,29.98,29.91,4,0,4,0.00
2013-10-24,51.3,48.3,45.0,51.0,48.0,44.7,99,99,99,30.05,29.94,5,1,5,0.00
2013-10-25,53.1,49.0,46.4,52.2,48.7,46.1,99,99,95,30.24,30.05,7,1,7,0.00
2013-10-26,53.6,49.9,46.9,50.1,48.3,46.7,99,94,85,30.26,30.12,8,1,8,0.00
2013-10-27,54.9,49.1,45.7,52.2,48.0,45.4,99,96,82,30.12,29.83,12,2,12,0.00
2013-10-28,64.0,50.3,42.6,51.4,40.3,31.7,99,73,33,29.88,29.81,13,2,13,0.00
2013-10-29,63.3,46.4,34.9,47.8,37.8,33.5,99,76,35,29.95,29.87,8,1,8,0.00
2013-10-30,84.7,47.8,36.7,53.5,42.8,36.4,99,85,33,30.05,29.87,14,2,14,20.36
2013-10-31,56.1,52.4,49.5,53.6,50.3,45.0,99,93,77,30.08,29.92,16,2,16,0.00
2013-11-1,63.3,56.2,51.8,53.8,52.2,48.8,99,87,63,30.10,29.67,9,2,9,0.00
2013-11-2,54.9,51.0,46.0,53.2,46.8,40.1,99,86,66,29.71,29.31,36,9,36,0.00
2013-11-3,59.4,46.2,40.5,45.7,41.6,37.7,98,85,48,29.93,29.70,12,3,12,0.00
2013-11-4,55.9,44.0,35.6,46.3,39.4,35.2,99,85,58,30.01,29.87,4,0,4,0.00
2013-11-5,56.5,48.5,43.3,52.9,46.9,43.1,99,94,74,30.08,29.83,17,2,17,0.00
2013-11-6,54.3,48.7,43.7,49.1,46.7,43.4,99,93,78,30.14,29.85,8,1,8,0.00
2013-11-7,53.1,49.9,48.2,51.0,49.1,47.6,99,97,86,29.85,29.52,23,8,23,0.00
2013-11-8,56.7,50.2,45.1,48.5,46.1,43.8,97,86,70,29.98,29.79,16,4,16,0.00
2013-11-9,52.7,46.1,39.9,48.8,44.5,39.7,99,94,80,29.98,29.89,7,0,7,0.00
2013-11-10,51.3,47.3,45.0,49.1,46.6,44.7,99,97,90,29.97,29.91,10,2,10,0.00
2013-11-11,63.1,49.0,41.5,54.8,46.5,41.3,99,92,60,29.98,29.82,7,1,7,0.00
2013-11-12,64.6,53.3,47.3,58.2,51.4,46.2,99,94,73,30.19,29.84,12,2,12,0.00
2013-11-13,60.4,53.3,48.2,52.9,50.2,46.8,99,90,70,30.26,30.13,15,4,15,0.00
2013-11-14,50.9,46.8,43.3,50.6,46.5,43.1,99,99,95,30.13,29.87,7,1,7,0.00
2013-11-15,80.8,46.2,43.9,53.5,45.1,43.3,99,97,36,30.00,29.26,27,8,27,20.36
2013-11-16,50.0,45.3,40.6,45.9,40.6,38.3,99,84,68,29.70,29.28,17,6,17,0.00
2013-11-17,54.1,47.6,43.7,49.8,45.7,40.7,99,93,83,29.85,29.70,20,8,20,0.00
2013-11-18,52.9,50.1,47.7,52.3,49.8,47.4,99,99,97,29.85,29.48,24,6,24,0.00
2013-11-19,54.3,44.8,37.8,54.1,40.4,23.7,99,86,49,30.00,29.49,23,4,23,0.00
2013-11-20,50.0,38.2,29.5,36.5,28.6,23.4,96,70,40,30.43,30.00,16,2,16,0.00
2013-11-21,51.6,35.4,28.2,37.2,28.4,21.8,99,79,35,30.59,30.43,8,2,8,0.00
2013-11-22,54.0,36.8,28.6,36.8,30.3,27.0,99,80,36,30.57,30.38,6,1,6,0.00
2013-11-23,55.8,39.6,30.7,39.9,34.0,29.3,99,83,42,30.38,30.13,5,0,5,0.00
2013-11-24,59.2,41.1,32.4,45.6,37.8,32.1,99,90,45,30.19,30.09,5,0,5,0.00
2013-11-25,60.4,42.9,33.4,50.8,39.9,33.2,99,90,56,30.25,30.18,3,0,3,0.00
2013-11-26,57.7,43.7,32.5,47.4,40.0,32.1,99,88,59,30.20,30.03,5,0,5,0.00
2013-11-27,63.0,47.2,40.3,45.8,41.9,38.2,99,83,50,30.03,29.89,5,1,5,0.00
2013-11-28,54.0,41.1,36.1,52.8,40.6,35.9,99,98,86,30.11,29.95,5,1,5,0.00
2013-11-29,47.8,44.8,38.1,46.9,44.2,37.5,99,98,86,30.25,30.10,13,2,13,0.00
2013-11-30,51.8,48.9,45.7,50.0,46.8,44.7,99,92,81,30.27,30.03,16,6,16,0.00
2013-12-1,54.1,51.7,46.0,53.7,49.2,39.7,99,91,74,30.02,29.67,30,10,30,0.00
2013-12-2,49.6,40.4,35.4,40.2,35.3,31.7,99,83,56,29.99,29.74,11,3,11,0.00
2013-12-3,48.2,35.3,28.2,35.9,28.0,21.8,99,76,45,30.24,29.98,16,3,16,0.00
2013-12-4,46.2,31.0,24.6,37.9,26.3,22.0,99,85,45,30.28,30.22,5,0,5,0.00
2013-12-5,36.0,27.5,22.6,25.3,22.2,17.3,99,81,52,30.25,30.11,6,1,6,0.00
2013-12-6,36.9,27.7,20.3,16.8,9.3,4.5,63,46,26,30.16,30.05,12,2,12,0.00
2013-12-7,37.4,22.8,16.7,14.4,7.0,-0.6,79,53,22,30.35,30.15,8,1,8,0.00
2013-12-8,39.4,25.8,16.3,17.6,14.2,9.4,83,63,32,30.50,30.34,6,2,6,0.00
2013-12-9,34.3,28.8,19.8,27.6,21.1,14.6,92,73,62,30.50,30.42,6,1,6,0.00
2013-12-10,40.3,35.6,32.0,35.2,32.7,26.2,96,89,79,30.42,30.34,8,1,8,0.00
2013-12-11,46.2,34.4,28.8,42.3,33.2,28.5,99,96,82,30.34,30.09,5,0,5,0.00
2013-12-12,43.7,37.7,30.7,42.4,36.4,30.5,99,96,70,30.09,29.97,15,3,15,0.00
2013-12-13,48.6,45.8,42.4,48.1,45.6,42.2,99,99,99,30.35,30.06,11,3,11,0.00
2013-12-14,48.6,46.4,43.7,46.2,45.1,43.3,99,95,89,30.37,30.26,15,4,15,0.00
2013-12-15,51.8,49.1,46.4,50.4,48.3,45.1,99,97,89,30.39,30.24,14,4,14,0.00
2013-12-16,54.9,44.5,39.9,49.8,43.9,39.7,99,98,79,30.43,30.21,6,1,6,0.00
2013-12-17,45.7,41.7,37.2,45.2,41.1,37.0,99,98,92,30.21,30.04,14,3,14,0.00
2013-12-18,45.5,41.4,34.0,43.8,39.7,33.2,99,94,76,30.09,29.96,11,2,11,0.00
2013-12-19,41.9,34.2,28.9,34.9,30.0,26.5,99,85,62,30.28,30.07,8,1,8,0.00
2013-12-20,45.9,36.6,31.6,44.7,35.6,27.1,99,96,79,30.13,29.65,17,3,17,0.00
2013-12-21,45.9,43.0,39.7,45.6,42.7,39.5,99,99,99,30.10,29.76,10,2,10,0.00
2013-12-22,50.9,48.1,45.1,50.3,47.9,44.9,99,99,99,30.23,30.09,19,5,19,0.00
2013-12-23,57.6,49.2,43.3,51.9,47.0,41.6,99,93,63,30.45,30.06,27,8,27,0.00
2013-12-24,51.6,41.2,35.2,47.7,39.8,35.0,99,95,79,30.56,30.44,6,1,6,0.00
2013-12-25,84.7,38.8,33.1,53.7,36.8,32.8,99,95,33,30.47,29.55,8,1,8,20.36
2013-12-26,47.8,37.3,33.6,45.3,37.0,33.4,99,99,91,29.89,29.69,4,0,4,0.00
2013-12-27,45.5,40.3,33.8,44.9,39.9,33.6,99,98,87,29.86,29.61,17,2,17,0.00
2013-12-28,53.2,43.3,37.6,53.0,42.8,37.3,99,98,89,30.01,29.86,4,0,4,0.00
2013-12-29,45.0,39.7,35.6,43.4,39.3,35.4,99,99,93,29.97,29.80,6,1,6,0.00
2013-12-30,45.9,41.5,37.9,44.5,41.1,37.5,99,98,92,29.81,29.62,11,1,11,0.00
2013-12-31,45.9,43.9,39.4,45.6,43.2,39.1,99,97,89,29.87,29.68,9,2,9,0.00
2014-1-1,44.6,41.3,38.3,44.2,41.0,38.0,99,99,99,29.90,29.74,4,0,4,0.00
2014-1-2,50.0,45.4,41.9,47.3,44.2,41.6,99,96,83,29.74,29.38,20,3,20,0.00